Retour au catalogue

EUCROPIS

ActifScienceSSO
NORAD 43807·PAYLOAD·🇩🇪 Germany

Lancé Dec 3, 2018 depuis Vandenberg Space Force Base

Loading…

Prochains Passages (prochaines 24 heures)

TLE

FraisSource: Space-Track

Époque: Sep 14, 2026, 14:16 UTC

1 43807U 18099BB  26257.59464112  .00005502  00000-0  24608-3 0  9998
2 43807  97.4129 312.0396 0004893   2.9372 357.1892 15.21702590426051

Suivez EUCROPIS en temps réel avec AllMySat

Download on the App Store